sat.trackr.live / text

‹ back to catalog

KUIPER-00197

NORAD 67769 · 2026-030F

PAYLOAD ACTIVE UNKNOWN

§ Identity

Operator
Country
US
Launch date
2026-02-12
Launch site
FRGUI
Launch vehicle
Mass (kg)
RCS (m²)

External: N2YO · Heavens-Above · Gunter

§ Orbital elements

Epoch: 2026-09-20T13:40:42.139488Z

Period
97.30 min
Inclination
51.8999°
Eccentricity
0.0000611
Mean motion
14.79934516 rev/d
Perigee alt
629.1 km
Apogee alt
630.0 km
Semi-major
7,007.7 km
B*
2.8499e-4
RAAN
46.3553°
Arg perigee
121.9147°
Mean anomaly
238.1875°
Rev number
3,438

§ Raw data

KUIPER-001971 67769U 26030F   26263.56993217  .00001952  00000+0  28499-3 0  99982 67769  51.8999  46.3553 0000611 121.9147 238.1875 14.79934516 34388

JSON: /api/v1/satellites/67769 · /tle

For live sub-satellite position, see the globe view (requires WebGL).

§ Visibility from observer

Set your observer location to see the next 7 days of passes ≥ 10°. The values pass through the URL so the page stays shareable.

No JS? Fill the form by hand. The geolocation button needs JavaScript.